Location: Asheville, NC
(35.6000°N, 82.5500°W)
Time: 03:03:18
(UTC-04:00)

Vanguard 2 Rocket - Pass Details

Date: 09 December 2017
Orbit: 553 x 3328 km, 32.9° (Epoch: 21 April)

Event Time Altitude Azimuth Distance (km) Brightness Sun altitude
Exits shadow 03:24:53 38° 173° (S) 3,542 9.7 -48.6°
Drops below altitude 10° 03:32:35 10° 146° (SE) 4,631 10.7 -47.1°
Sets 03:35:44 0° 140° (SE) 5,302 11.2 -46.4°
